Wind_Speed
7 8 4 2 4 5 2 3 2 2 3 3 2 5 6 4 1 3 8 11 12 12 10 11 14 17 18 21 19 18 18 17 17 15 13 12 11 10 8 6 5 4 3 3 5 7 9 11 11
9 7 1 2 5 4 2 2 5 7 10 8 7 4 5 3 3 9 8 10 11 11 11 13 15 17 19 20 20 19 19 18 18 17 15 13 11 9 7 6 5 3 2 1 3 5 7 9 10
7 1 2 4 4 4 4 2 7 11 8 2 4 5 4 2 6 8 7 14 14 14 15 15 16 18 20 20 19 18 18 18 20 19 16 15 14 12 10 7 6 3 1 2 4 5 7 9 11
5 2 3 5 5 2 5 7 5 6 3 7 5 5 4 3 11 8 18 17 17 17 17 18 19 20 20 21 21 20 20 19 16 14 13 14 14 14 10 11 11 10 6 5 6 6 7 8 7
3 3 4 5 2 3 1 7 7 5 3 4 1 4 4 4 12 21 19 18 19 20 21 21 20 20 20 19 18 17 17 16 16 15 12 10 9 8 10 12 12 12 11 8 7 8 9 10 11
2 3 4 3 5 2 3 6 7 4 4 4 5 6 3 16 24 21 20 20 21 23 22 20 19 18 17 16 15 15 16 16 16 14 11 8 6 4 3 9 6 9 8 6 4 5 7 6 6
4 3 3 4 3 4 4 7 7 6 5 3 7 4 2 6 20 22 22 23 23 22 21 19 17 14 13 13 12 12 13 14 15 13 12 10 7 3 3 2 4 5 4 8 4 5 6 5 7
4 4 2 1 2 2 5 5 7 7 3 8 6 5 5 10 22 23 22 23 22 20 20 17 16 14 11 10 8 9 10 12 14 14 14 13 10 7 5 4 7 8 7 4 7 7 7 6 7
3 4 2 5 6 5 5 5 1 5 7 3 5 6 12 26 26 24 21 20 19 18 17 16 16 12 9 6 5 4 6 9 11 13 15 14 14 11 5 8 8 8 6 7 7 8 8 9 10
4 3 7 6 7 7 7 7 9 4 7 2 4 9 30 27 26 23 20 21 20 19 16 15 14 10 6 7 5 5 6 7 10 11 13 14 13 11 7 4 5 5 6 6 7 9 10 12 13
4 5 5 4 6 11 10 6 6 9 5 7 10 18 22 24 21 20 18 23 24 20 17 14 16 9 7 10 8 7 7 7 9 12 14 15 15 11 7 7 7 9 9 10 10 10 11 12 14
1 6 4 3 8 8 12 9 6 8 6 8 14 21 23 18 20 21 20 23 21 17 16 19 14 12 11 10 9 8 6 7 10 13 15 17 15 11 10 9 10 10 11 10 11 12 13 13 13
3 1 3 6 8 8 12 5 5 9 1 12 15 18 16 17 20 20 20 25 21 20 19 18 16 13 10 9 9 6 6 8 11 13 16 17 16 13 11 11 11 11 11 12 14 15 14 15 17
2 6 5 5 7 4 8 4 8 6 8 13 17 16 16 17 22 19 23 26 26 24 22 19 16 12 10 11 9 7 6 8 10 13 15 15 14 14 13 13 12 12 13 13 15 16 16 16 18
3 6 7 4 3 4 9 2 8 5 14 16 17 16 16 18 24 28 30 32 32 27 23 18 15 14 14 13 12 9 7 7 10 13 14 13 13 14 14 14 14 14 15 15 16 15 15 18 18
5 5 4 2 5 1 5 8 10 13 18 18 18 16 16 15 25 26 30 35 31 27 24 20 15 13 14 15 12 8 6 7 11 12 12 12 13 14 14 14 15 16 16 17 17 17 17 19 21
5 5 5 3 6 5 5 6 7 14 16 16 18 17 15 14 19 24 29 36 33 28 22 17 15 16 16 15 13 10 8 8 10 10 10 11 12 13 14 15 15 16 16 17 19 18 17 18 22
8 5 2 7 9 5 7 13 3 15 15 17 16 13 14 17 18 25 28 31 32 25 22 17 15 15 15 16 14 10 8 7 7 7 7 8 9 11 12 13 15 15 15 18 19 19 18 16 20
6 5 6 3 6 7 17 5 7 13 12 11 13 12 12 15 16 25 30 35 33 27 23 19 17 16 19 18 15 11 7 5 6 7 6 7 8 9 11 13 15 15 16 17 17 19 19 20 22
5 6 5 1 2 7 3 9 9 14 21 20 17 14 16 14 14 18 23 30 33 30 24 19 17 18 18 15 12 5 8 4 3 2 3 6 8 10 11 13 12 14 15 17 17 16 16 15 17
3 8 7 4 3 3 3 5 4 7 12 9 11 17 15 19 19 15 20 21 26 25 23 21 19 18 15 14 11 10 7 4 2 1 2 6 8 9 10 10 10 12 14 17 17 15 12 13 16
4 8 4 4 3 3 3 5 5 5 14 9 16 15 16 15 11 12 19 18 24 25 22 20 20 18 15 13 13 12 7 5 3 1 4 6 8 7 9 10 11 12 15 17 18 16 12 14 14
7 5 7 3 4 4 1 3 6 1 6 15 19 17 16 17 21 24 31 29 29 27 24 23 20 16 14 15 12 10 9 7 4 2 3 4 5 6 7 10 11 13 17 17 17 17 14 13 12
6 5 7 6 4 1 5 6 5 6 8 6 9 14 17 19 18 17 19 23 25 28 26 24 21 18 15 12 11 11 11 7 6 3 4 3 5 5 7 9 11 13 16 18 18 16 13 14 12
5 6 2 3 2 5 4 3 11 8 7 7 7 10 14 14 16 16 18 24 26 28 29 25 22 20 16 13 12 13 10 8 5 3 1 3 5 7 10 10 12 13 16 21 18 13 14 13 13
6 8 6 6 3 7 3 6 8 5 6 3 4 8 12 13 15 17 23 27 28 31 28 26 23 21 18 13 13 13 10 8 5 3 1 4 6 8 8 9 11 13 18 20 16 13 13 12 12
4 3 5 7 2 3 3 8 10 4 7 5 6 8 12 15 16 17 22 26 28 27 28 29 26 21 19 14 15 14 12 8 5 3 2 4 5 6 7 9 11 14 18 19 17 12 12 13 14
8 7 3 3 4 4 4 5 6 8 10 7 8 11 10 12 14 15 20 24 25 26 27 27 25 24 19 17 16 13 11 8 6 3 2 3 4 6 8 9 10 13 17 18 17 14 11 14 13
3 3 6 5 4 6 2 6 8 12 9 11 15 9 13 14 15 15 17 22 24 26 26 29 28 24 20 19 15 13 11 8 6 3 2 2 5 7 9 9 9 10 15 18 18 15 14 14 14
5 8 7 5 4 2 3 7 6 8 9 9 8 9 11 14 15 14 19 24 24 25 27 31 29 26 23 19 15 13 10 9 6 3 3 4 6 7 10 9 8 9 13 16 19 18 16 15 14
Wind_Direction
138 127 119 22 58 61 43 58 328 82 43 355 54 116 110 36 101 166 128 133 133 124 109 96 87 85 84 81 82 86 88 85 83 86 85 87 87 89 96 104 114 132 163 199 217 229 238 249 258
156 140 93 74 83 71 299 284 69 89 138 128 85 79 63 61 73 113 116 144 136 126 117 100 94 90 90 89 89 89 86 83 80 80 77 78 82 87 90 87 101 125 159 233 251 263 262 265 267
144 150 80 91 106 140 154 124 117 145 155 43 86 48 82 98 77 124 145 147 137 123 114 106 104 100 95 91 86 83 79 80 78 78 74 75 71 76 77 77 65 48 359 317 301 294 288 281 282
138 32 35 78 101 205 147 152 131 121 92 53 107 65 68 214 149 149 145 141 132 121 118 111 105 100 94 88 81 76 74 74 75 76 74 77 78 70 79 66 54 36 18 318 283 281 273 266 269
95 54 66 89 81 147 143 142 143 143 99 117 143 108 75 51 139 141 142 141 132 126 119 112 104 96 90 84 77 71 66 62 60 60 58 60 67 74 66 50 43 38 43 24 9 353 327 314 289
44 98 66 130 129 164 138 142 139 109 110 133 102 99 78 137 136 146 147 141 133 125 120 112 104 98 92 83 72 65 60 51 44 37 37 34 46 44 41 42 36 41 42 28 20 319 312 301 292
118 93 142 121 100 130 181 146 149 127 124 133 154 92 102 145 146 151 147 141 137 132 125 121 116 107 96 83 71 57 46 40 35 33 32 28 20 8 351 335 28 46 12 42 337 309 314 296 284
101 88 80 89 144 107 138 125 132 110 183 127 145 159 176 168 153 152 147 146 145 141 137 136 129 119 103 86 73 57 48 43 36 31 26 20 15 8 357 343 43 52 53 347 301 295 299 308 309
125 60 131 187 151 143 155 116 104 125 131 197 171 146 142 150 155 149 151 154 153 151 151 147 141 127 118 117 94 64 57 46 35 27 20 16 13 14 21 43 47 38 27 11 316 308 305 305 306
96 115 210 189 167 148 155 125 148 115 152 270 54 107 134 147 152 150 163 167 166 164 168 157 153 153 148 160 156 119 88 60 45 29 17 11 8 6 8 26 22 18 355 342 328 323 319 313 309
170 194 190 218 173 139 140 129 148 124 210 191 170 148 145 151 159 163 174 176 174 173 174 171 169 180 188 175 164 136 109 81 52 30 20 11 4 2 7 10 9 6 5 1 354 346 340 330 319
168 239 152 213 144 128 152 133 156 169 206 156 161 161 156 158 166 171 176 180 181 190 189 186 188 186 183 178 162 140 108 79 49 29 19 13 14 21 28 23 23 16 13 10 7 0 354 349 342
228 118 75 106 128 109 124 145 167 211 120 131 141 157 162 168 171 178 180 182 180 170 162 164 173 182 180 170 159 143 103 73 49 31 21 17 25 34 32 35 29 25 17 9 4 359 354 350 343
181 76 82 84 119 111 120 135 143 217 143 140 152 167 174 173 172 167 178 180 178 171 171 171 169 173 182 184 172 149 107 63 43 31 28 31 39 41 37 32 29 24 16 8 359 354 350 345 341
146 86 67 62 149 148 104 104 226 160 160 162 173 171 176 178 169 178 178 178 185 180 172 171 170 173 184 176 167 147 109 63 38 36 36 41 46 44 34 27 26 20 11 4 1 356 352 347 344
65 54 95 223 141 129 120 256 212 166 168 183 179 181 183 178 179 179 177 183 184 179 171 171 176 181 179 173 158 147 114 75 45 43 46 52 51 48 36 24 17 11 4 356 353 352 349 353 350
37 162 132 153 210 144 158 256 245 174 185 187 191 186 177 179 181 181 179 181 180 176 175 171 174 167 172 171 158 147 120 80 57 56 55 53 44 33 24 13 6 4 3 360 356 355 350 347 349
188 136 159 168 202 180 188 245 208 183 190 200 201 190 176 178 184 176 173 174 176 170 170 166 167 167 176 169 154 145 123 90 74 71 58 48 33 24 15 6 2 355 353 356 355 353 353 351 348
132 129 163 235 196 146 219 236 202 199 203 209 208 197 187 184 174 166 166 169 172 169 169 172 171 178 180 169 154 150 137 109 106 85 60 38 18 8 360 356 353 355 352 347 347 349 351 352 356
144 149 220 277 128 166 180 251 215 198 212 207 195 199 190 173 164 160 157 162 169 167 168 169 180 183 185 178 167 168 159 141 117 71 34 8 355 358 356 347 348 350 348 352 348 347 348 340 353
207 176 191 182 133 7 180 262 211 231 230 213 209 212 191 179 171 161 160 163 169 168 168 174 181 185 184 179 185 167 158 159 146 36 10 7 350 349 355 352 344 341 345 349 353 350 348 339 344
179 222 157 166 120 227 50 272 282 241 232 221 220 202 192 177 163 154 160 173 170 173 173 175 181 178 171 171 179 178 188 178 152 72 14 12 350 352 347 348 350 354 347 345 346 347 345 342 337
211 137 185 165 107 80 358 88 267 283 258 236 231 207 187 176 171 174 186 170 172 175 174 177 176 166 158 158 168 187 181 168 141 88 37 1 347 347 352 359 356 355 351 346 343 342 343 338 332
134 95 40 45 94 131 214 159 250 211 217 257 223 205 184 183 177 174 164 155 165 176 177 177 172 161 163 163 171 185 170 160 127 98 66 3 343 348 353 352 351 351 349 344 335 338 336 340 332
105 82 334 340 5 213 125 124 249 260 235 228 226 200 183 171 165 163 161 164 166 177 180 178 172 161 167 158 173 181 173 170 135 107 42 331 336 348 350 339 343 342 345 343 335 330 335 338 338
181 152 160 227 223 279 123 226 254 268 256 175 180 147 151 156 167 170 173 169 171 179 181 179 179 164 175 164 180 182 178 166 141 132 282 312 324 339 347 349 349 344 345 348 342 335 338 339 334
190 155 194 108 46 58 228 289 310 261 259 206 165 151 164 167 171 172 173 175 175 177 180 184 183 175 179 173 182 184 187 168 162 171 251 307 335 351 343 348 347 351 349 350 347 340 337 338 337
162 165 95 8 160 226 280 274 240 278 253 222 214 183 174 165 166 171 177 177 176 179 182 188 185 187 178 185 185 186 183 171 177 186 269 305 321 330 338 340 343 354 357 352 349 346 341 342 344
145 169 56 115 135 177 218 256 218 240 239 219 231 172 170 171 172 172 175 175 173 177 181 188 190 189 181 191 182 193 190 188 193 197 291 296 304 321 329 325 331 347 356 359 353 350 344 340 343
170 169 147 127 226 178 178 270 243 251 245 216 224 169 166 167 171 171 165 166 171 175 185 189 191 192 192 188 184 195 193 194 193 205 261 274 300 318 330 323 319 330 349 354 357 348 346 346 342
Height
777 779 781 782 808 817 833 824 808 814 819 813 809 813 822 825 828 848 831 832 833 833 833 834 834 834 833 835 834 835 835 835 835 835 835 835 835 836 836 837 837 838 837 837 838 837 837 837 837
777 780 782 790 823 840 839 818 820 812 813 810 811 816 822 832 824 828 831 833 834 835 835 835 836 835 835 836 836 837 837 837 837 837 836 837 837 838 839 838 838 837 838 837 837 838 838 838 838
778 780 787 806 829 840 837 815 816 811 808 808 816 814 820 831 826 828 831 834 835 836 837 837 838 838 838 838 838 838 839 839 839 838 838 839 839 839 839 838 838 838 837 837 836 837 838 838 838
778 782 789 814 824 818 814 814 810 813 811 811 816 825 821 823 826 829 832 835 836 837 839 839 840 841 841 840 841 841 841 841 841 841 841 841 840 840 839 838 838 837 836 835 835 835 835 835 835
778 787 812 822 822 813 808 805 808 815 816 817 815 827 828 828 827 830 833 836 837 838 840 842 843 843 843 843 843 843 842 843 843 843 842 841 841 840 839 839 838 837 836 835 835 834 833 834 834
786 791 817 828 821 809 805 803 806 811 815 818 821 824 831 830 828 832 834 837 839 840 842 844 845 846 845 845 844 845 845 845 844 844 843 842 842 840 839 839 839 838 837 836 834 833 833 833 831
788 802 816 815 814 813 807 802 808 814 818 819 815 830 832 831 831 832 835 838 840 842 843 845 846 847 846 846 846 846 846 846 845 845 844 843 841 841 839 838 838 837 837 836 834 833 832 831 830
784 798 812 811 816 813 804 802 803 807 817 810 812 830 836 829 831 833 836 839 840 841 843 844 846 846 847 847 848 847 848 848 847 846 845 843 842 840 839 838 838 836 835 834 833 832 830 829 828
778 808 819 813 812 809 801 805 804 802 810 810 811 815 818 825 830 835 838 840 841 842 843 844 845 845 846 848 848 849 849 849 848 847 846 844 841 840 838 837 837 836 834 833 832 830 829 828 826
789 812 804 790 791 801 800 801 805 810 814 815 817 815 818 825 830 833 836 838 840 842 844 845 845 845 845 847 848 849 849 849 848 848 847 845 842 839 837 836 835 834 833 832 831 829 827 826 824
787 799 787 781 782 785 797 801 798 811 822 812 816 818 819 824 829 832 835 836 838 841 843 844 845 845 845 846 847 848 848 848 848 848 848 846 843 841 838 837 834 833 831 830 829 827 826 824 822
786 777 778 777 779 787 796 797 804 804 803 799 808 811 816 822 827 830 834 837 840 842 842 844 846 846 847 846 846 847 847 848 848 848 847 845 843 841 839 837 836 835 833 831 829 827 825 823 820
782 773 775 776 780 785 789 798 803 804 797 800 808 816 819 823 826 830 833 836 839 841 842 844 845 846 846 846 846 847 847 847 846 845 845 844 842 841 840 838 836 834 833 832 829 826 824 821 819
774 779 784 784 787 789 795 802 800 799 798 804 809 814 818 821 823 828 831 834 836 837 839 841 842 843 845 845 846 846 847 847 846 845 844 842 843 843 842 840 838 836 834 832 829 827 824 821 819
777 791 788 791 790 795 792 812 806 795 797 803 807 810 814 816 819 821 824 829 832 834 838 842 842 840 842 844 845 846 846 847 847 845 845 844 843 843 842 841 839 836 834 832 829 827 824 821 818
788 793 812 792 789 794 794 818 798 793 795 801 801 803 807 811 814 818 822 826 830 833 836 837 839 843 843 843 843 846 847 846 848 848 847 846 845 843 843 842 840 837 835 832 829 826 823 820 817
796 818 810 803 790 795 800 808 787 790 793 797 796 796 802 809 814 817 819 822 827 832 836 838 840 840 844 844 843 844 846 846 847 850 849 848 847 846 844 844 842 839 836 833 830 826 823 819 816
805 810 804 807 796 797 805 802 793 789 791 792 793 796 799 802 805 810 814 820 824 831 833 837 840 839 842 843 842 845 845 845 846 847 849 848 847 845 844 843 841 838 836 833 830 827 823 819 815
789 795 797 790 783 795 796 795 797 791 792 797 795 796 797 798 801 804 808 811 819 824 829 831 833 837 840 843 842 844 845 846 845 845 847 847 847 845 843 843 841 838 836 833 830 826 823 818 814
785 795 798 783 782 792 792 797 790 788 781 780 786 790 789 795 800 807 809 811 815 819 823 828 833 836 838 839 840 844 845 846 847 847 847 847 847 845 844 843 841 839 836 833 830 827 823 819 816
786 792 794 791 790 794 800 801 794 784 778 779 782 777 785 787 795 805 811 815 817 820 822 828 833 836 836 835 838 842 844 845 846 847 846 845 847 846 843 842 840 839 836 833 830 827 824 820 816
794 774 778 786 794 813 795 829 795 790 782 780 773 777 779 788 799 806 810 817 817 819 824 828 834 835 833 833 836 840 844 844 843 844 845 844 846 845 844 842 841 838 836 833 830 827 824 821 817
780 768 778 780 800 806 810 825 798 790 791 776 765 766 775 782 785 786 790 799 811 820 823 828 832 832 831 832 835 840 843 844 842 843 843 845 846 845 844 842 840 838 835 832 830 827 824 821 818
762 777 792 807 815 833 807 816 800 793 773 764 758 761 768 771 782 791 801 806 812 819 824 827 829 829 830 831 834 840 841 843 841 843 843 845 846 845 843 842 840 837 835 832 829 826 823 821 818
770 794 828 828 831 829 814 820 784 763 760 756 757 757 764 772 782 790 796 803 809 817 821 824 826 827 830 830 834 839 840 842 840 841 843 845 844 844 842 841 839 837 834 831 828 825 822 820 817
778 788 823 831 833 819 816 822 783 756 750 749 749 756 764 773 779 785 791 796 803 810 817 821 825 825 830 830 834 838 840 839 839 841 843 845 844 842 841 840 838 836 833 830 827 824 822 818 816
775 791 779 812 818 828 817 798 765 755 756 753 756 760 765 768 774 781 790 794 801 806 812 816 821 823 828 829 833 836 839 838 839 840 842 844 843 842 840 839 837 835 832 829 826 823 821 818 815
759 764 794 814 825 830 822 811 795 763 752 754 756 757 763 767 772 780 786 792 797 804 810 815 819 823 825 829 832 835 837 836 838 839 841 842 842 841 839 838 837 834 832 829 826 822 820 817 814
768 776 791 798 810 822 827 810 761 751 745 748 742 749 757 763 768 775 782 789 795 802 808 812 817 822 824 828 830 834 835 835 837 838 840 840 841 840 838 837 835 833 831 829 825 822 819 816 813
749 762 774 805 803 813 816 797 738 741 739 739 738 744 750 756 762 770 777 785 792 798 803 808 814 819 822 826 828 832 833 834 835 836 838 839 840 839 837 835 834 832 831 828 825 822 819 816 813